Theta_e
307 302 300 301 302 302 300 299 298 302 305 303 303 304 306 310 310 310 311 311 312 313 316 318 317 320 322 336 347 351 353 357 353 348 348 348 345 345 345 345 345 347 344 343
304 300 302 303 302 301 300 298 299 303 305 305 304 303 307 309 309 311 310 311 312 314 315 315 317 318 322 328 345 350 354 355 352 349 354 349 347 345 346 346 347 347 344 345
299 302 303 301 301 300 301 300 299 299 304 306 304 301 304 308 309 308 310 311 312 313 313 314 315 318 321 325 340 349 353 355 353 355 354 351 351 347 344 344 345 345 344 347
301 303 300 300 299 300 297 303 302 300 300 296 303 289 301 305 306 306 309 312 312 312 314 315 315 316 322 324 336 348 352 354 353 357 352 352 344 340 342 344 346 345 346 345
298 299 299 298 299 302 299 303 302 302 301 299 299 294 300 305 302 305 308 312 314 315 314 313 315 315 317 322 334 345 352 354 355 351 354 347 346 343 344 343 350 350 351 349
302 304 302 301 302 303 304 303 304 303 300 292 298 296 296 300 303 305 309 312 314 315 316 315 315 316 316 320 331 340 347 352 350 349 353 350 350 347 342 343 342 343 346 348
300 299 302 303 300 304 304 301 290 292 292 291 298 293 298 303 306 306 305 311 314 315 314 313 312 313 315 317 328 338 345 346 347 348 349 347 351 353 352 348 343 342 342 346
294 294 298 302 300 298 301 298 288 282 287 291 297 292 297 303 306 309 311 313 314 314 310 311 312 314 314 317 330 338 341 342 344 346 347 348 348 344 344 346 340 339 343 346
294 294 302 302 304 303 300 297 300 288 291 288 296 297 300 304 306 309 310 312 314 317 312 311 312 313 315 320 332 338 339 342 341 344 346 347 348 349 342 347 352 346 350 344
297 290 300 302 303 304 301 303 292 291 284 285 292 293 289 294 299 304 306 308 313 318 316 314 312 314 316 324 334 340 342 342 339 344 346 346 348 346 349 348 348 346 343 340
300 295 296 302 298 297 299 295 297 293 291 285 286 291 298 299 301 304 306 308 312 319 319 314 312 314 319 327 334 339 338 341 337 342 345 344 347 348 344 338 338 338 338 334
302 298 292 296 302 304 302 297 299 288 288 291 289 293 305 303 302 305 305 306 313 323 320 316 314 316 323 332 334 339 337 336 339 344 342 343 347 341 335 332 331 329 328 324
301 296 292 294 299 302 299 299 299 301 298 291 285 291 305 303 303 307 304 304 311 321 321 318 316 320 328 333 335 335 334 337 342 342 342 331 330 328 325 323 321 322 316 317
301 300 295 288 293 297 294 297 299 297 292 290 291 293 299 300 298 302 302 303 309 313 320 321 324 327 331 334 332 332 334 337 336 342 332 327 324 322 320 319 316 313 313 313
304 296 298 298 297 297 297 297 298 295 296 290 292 295 296 299 300 300 301 303 307 309 314 317 322 325 332 334 335 333 334 338 338 334 325 321 320 320 318 314 313 311 309 308
303 296 298 295 298 297 296 297 300 298 297 295 297 297 301 304 304 299 299 301 304 306 309 313 321 327 328 328 329 330 330 326 327 321 317 316 313 312 309 308 309 306 306 306
299 298 294 292 297 298 292 297 299 299 299 297 293 300 303 302 303 299 298 300 303 306 307 310 315 317 322 323 325 322 321 320 317 314 312 312 308 304 304 305 305 303 303 305
300 299 296 292 294 287 298 303 303 300 300 300 300 303 305 304 305 302 301 300 301 304 306 308 312 315 317 316 315 315 315 314 311 309 308 306 304 302 303 303 303 303 304 304
304 300 294 290 291 295 297 300 300 299 298 302 302 303 304 306 306 303 302 302 302 304 307 309 312 315 315 314 314 312 311 311 308 306 306 304 304 301 301 300 302 304 304 303
302 303 296 293 285 287 298 303 306 306 293 305 305 303 303 304 297 300 304 303 303 305 306 308 310 313 314 313 312 309 307 306 304 304 305 304 303 301 299 299 300 301 302 303
295 295 292 292 291 295 303 304 304 292 296 307 306 304 306 301 302 304 302 302 304 307 306 306 307 308 311 313 311 307 304 302 301 300 299 299 298 297 297 297 299 300 301 302
293 292 292 294 291 287 306 303 295 303 308 308 308 306 307 307 307 305 302 301 302 303 305 305 305 305 307 308 304 301 299 300 300 299 296 296 297 298 298 297 298 299 300 300
293 297 296 297 296 306 306 305 309 311 305 309 309 309 309 308 305 306 303 304 301 302 303 305 305 304 304 305 302 298 298 298 297 296 295 294 296 297 298 298 300 300 301 298
300 303 297 298 301 302 304 305 306 306 307 311 311 311 310 308 308 304 304 302 300 301 301 302 302 302 302 302 300 298 298 296 294 293 292 293 294 295 298 298 300 300 299 297
299 301 299 299 302 303 303 307 309 310 311 311 311 311 311 310 308 304 303 301 301 301 300 300 299 300 301 301 300 299 298 296 293 292 292 293 295 296 298 300 300 300 301 297
301 299 297 297 302 302 303 307 309 310 310 311 310 310 311 311 309 305 304 302 301 300 300 298 298 298 299 300 299 299 298 296 294 293 293 293 295 297 296 296 295 290 291 290
Wind_Speed
5 10 6 10 10 15 16 17 19 20 20 20 22 25 23 23 24 24 24 23 23 23 25 23 18 18 14 15 17 17 21 21 16 12 13 14 14 13 12 10 13 15 13 13
9 9 6 9 11 14 16 18 20 19 16 24 26 27 29 25 20 20 19 19 22 22 23 22 20 20 16 16 16 19 22 22 18 13 14 13 13 13 12 11 12 14 14 14
11 9 6 10 12 14 13 16 16 24 26 26 23 18 8 14 14 8 12 13 16 19 21 21 21 21 18 18 19 19 21 22 19 20 13 11 12 12 12 12 11 12 14 12
6 1 10 10 12 8 16 13 21 25 22 14 17 11 16 10 11 9 6 11 14 15 18 22 21 22 19 18 19 21 21 22 19 20 17 18 15 15 14 12 11 12 14 14
8 11 10 9 8 11 14 19 24 26 20 13 13 8 11 21 6 14 18 21 20 18 19 22 24 23 24 20 18 19 21 22 21 19 18 16 17 14 13 13 13 10 11 13
13 5 7 8 11 14 12 19 23 5 5 6 4 9 12 13 20 21 24 26 24 21 21 23 23 22 23 21 20 19 21 20 19 17 18 19 18 16 15 13 13 12 11 10
12 4 2 4 16 4 13 15 5 4 5 13 9 10 11 17 23 26 26 27 25 21 20 21 22 22 21 21 20 16 19 19 17 19 20 21 17 17 18 17 14 14 12 11
9 4 4 9 12 11 13 7 1 7 12 17 16 5 8 20 22 18 24 24 24 15 13 14 20 22 19 21 19 17 20 18 17 21 20 19 18 14 12 14 14 13 12 12
8 3 13 5 12 7 10 6 10 6 9 8 2 3 5 18 26 27 25 23 21 21 8 11 17 17 20 19 16 18 19 20 20 21 17 17 18 17 14 15 14 12 13 13
4 10 8 13 4 7 4 6 4 1 7 8 14 8 5 18 25 26 28 26 23 21 10 10 15 16 18 16 16 20 22 23 18 19 21 18 18 15 15 14 16 16 15 16
8 5 12 17 3 7 4 6 2 4 5 5 9 10 2 17 20 24 26 25 23 23 14 8 11 18 18 16 18 18 18 19 18 16 14 15 16 15 13 10 12 13 15 17
6 7 9 20 2 8 10 12 7 3 4 6 4 6 16 20 26 23 23 24 25 26 10 7 11 12 13 14 14 14 14 17 17 19 14 14 11 14 14 14 17 13 15 13
6 5 9 11 9 7 19 15 12 11 12 7 8 9 19 22 21 24 23 23 23 26 14 6 10 10 12 14 12 12 15 14 17 19 16 16 14 14 17 16 16 15 15 13
7 10 7 8 17 17 14 16 12 13 7 7 5 24 20 25 21 25 21 19 16 18 20 4 3 6 10 13 12 13 14 15 13 16 16 16 14 16 17 16 16 15 15 17
6 11 13 16 17 16 12 10 14 13 5 4 14 20 18 22 19 17 16 17 17 17 17 16 4 4 10 13 12 12 13 14 13 14 14 15 16 16 16 17 16 16 14 12
6 9 14 16 10 8 15 9 15 15 7 6 17 19 15 16 12 16 18 18 16 15 16 14 13 5 7 9 9 10 12 14 14 14 17 16 17 16 16 17 19 18 16 16
8 7 10 11 15 15 2 7 14 14 2 11 15 20 17 20 18 14 19 17 15 15 15 14 10 7 9 10 9 4 13 15 15 15 16 16 17 17 17 18 20 19 16 13
8 10 7 12 13 3 3 6 12 14 2 13 16 20 20 15 14 8 15 17 18 14 14 16 11 9 12 12 12 12 13 13 15 15 16 15 17 19 18 17 18 18 17 15
10 8 7 4 10 15 2 5 14 15 13 12 18 19 18 18 7 1 15 15 15 15 10 9 9 9 8 7 11 14 14 15 15 14 15 16 17 18 17 16 15 16 17 15
5 9 7 11 5 4 4 10 14 11 3 18 17 17 18 17 12 10 19 16 14 14 12 11 11 8 8 8 8 11 15 15 18 15 15 15 17 18 16 15 14 14 15 14
8 7 9 8 7 10 7 10 14 7 14 18 16 15 17 11 5 11 10 15 14 14 14 13 11 11 9 8 10 11 13 15 15 17 17 16 16 17 18 16 13 15 14 14
7 7 6 5 8 7 6 14 12 12 14 16 14 13 14 11 9 11 7 9 14 16 14 14 9 9 11 9 10 14 14 14 16 17 18 18 16 14 13 17 14 14 15 16
5 5 9 8 9 18 19 15 11 11 16 13 12 12 12 13 9 10 9 10 8 10 11 10 8 8 9 11 9 14 12 14 17 18 18 16 16 14 14 15 16 14 15 12
12 10 9 13 4 11 19 20 18 16 15 10 9 10 12 11 8 8 7 8 8 7 8 8 7 9 9 13 14 13 14 15 18 19 17 15 16 15 12 10 10 13 12 11
14 18 14 18 19 15 10 9 9 9 8 8 8 7 9 10 8 5 6 7 6 5 6 7 8 8 8 12 16 12 13 16 20 16 15 14 11 14 15 13 11 12 11 10
16 21 15 12 5 9 12 11 12 11 10 9 8 9 8 7 7 4 6 4 4 5 5 7 8 9 9 11 15 16 12 15 21 17 11 8 9 13 13 13 15 24 23 24
Wind_Direction
342 282 305 342 312 298 295 294 294 294 301 295 282 290 288 282 275 271 267 265 258 252 254 257 245 241 236 239 216 208 198 193 184 185 188 190 188 190 181 182 173 173 176 176
258 273 353 313 304 295 294 295 291 302 309 311 299 298 290 277 267 265 269 270 264 252 247 252 242 237 220 233 216 213 202 187 183 185 193 195 192 185 180 180 178 179 177 174
297 305 344 308 307 305 307 300 310 307 314 300 294 305 300 316 285 266 279 276 271 262 245 245 246 237 222 221 214 214 201 191 183 187 194 189 188 182 181 180 178 179 180 173
285 43 301 306 303 319 307 337 313 309 319 310 338 293 301 304 281 270 299 312 300 270 247 248 240 242 221 220 212 213 198 191 188 190 189 188 185 184 187 174 171 176 179 180
344 314 320 299 336 321 293 319 303 295 293 308 281 256 268 308 309 331 318 322 309 291 266 245 241 230 234 214 210 206 207 193 191 188 190 182 192 188 171 175 151 169 171 173
307 287 281 310 311 284 308 304 315 296 306 256 336 315 302 355 328 315 326 317 306 296 276 254 238 228 230 209 200 206 208 197 188 182 190 186 191 181 176 164 164 168 164 165
316 165 173 282 324 312 318 353 319 319 293 309 9 314 289 333 331 326 306 313 304 294 282 247 225 220 220 211 199 185 203 193 186 184 189 186 185 176 169 158 178 169 164 164
344 158 14 352 341 314 312 32 358 305 329 309 309 303 307 326 307 320 329 315 309 305 275 235 217 215 207 209 195 174 197 189 180 191 184 185 181 178 163 171 170 169 166 161
318 300 342 325 320 294 3 328 337 282 261 265 248 255 296 324 331 334 331 331 327 319 284 249 225 204 209 193 194 177 192 185 182 191 186 178 176 180 158 177 152 157 159 141
337 296 299 327 259 190 305 1 320 265 304 297 331 342 291 310 322 326 334 337 328 314 280 227 238 205 199 187 184 175 187 184 177 183 188 173 173 168 154 156 165 149 138 140
295 239 304 295 335 354 4 332 281 239 247 293 317 338 340 322 325 328 334 337 327 300 296 216 222 209 190 173 176 172 180 181 173 178 180 168 150 162 137 123 123 135 129 136
332 298 288 298 277 220 334 344 349 282 315 270 257 289 350 353 326 329 339 334 332 329 306 206 189 183 182 162 177 174 174 177 170 178 159 126 142 137 124 121 109 119 118 125
338 251 306 325 161 220 342 315 322 295 281 271 306 304 333 341 332 335 346 336 341 337 358 320 178 173 197 162 157 143 145 158 156 166 125 114 127 130 109 104 111 113 109 112
215 259 281 283 297 302 296 323 311 308 306 326 286 314 347 331 343 336 335 335 345 347 354 39 147 164 142 143 140 149 155 157 146 148 125 131 131 114 110 114 111 114 113 121
246 286 303 303 293 282 295 301 330 336 352 295 316 324 354 333 327 344 332 339 359 7 6 1 59 192 157 158 151 149 149 146 147 127 120 112 109 103 108 111 111 101 93 90
307 284 302 291 282 278 282 276 323 341 354 313 331 337 342 325 326 360 350 349 359 4 6 359 7 142 121 138 141 152 130 120 118 109 105 107 105 117 116 115 109 100 102 109
283 297 309 299 327 303 354 288 341 336 8 334 351 337 355 338 346 14 345 349 358 1 358 356 11 50 69 67 68 115 110 104 115 119 114 120 123 112 110 113 111 106 107 113
270 299 279 301 308 274 45 331 337 327 334 346 353 346 360 341 325 34 351 347 353 2 12 355 5 36 58 94 100 90 100 113 104 107 113 115 110 110 114 113 115 119 120 116
228 285 301 298 318 286 52 357 343 338 324 344 358 346 359 342 309 128 5 353 348 350 7 11 9 27 42 71 107 112 110 113 112 111 115 115 116 113 113 113 117 118 116 109
214 242 276 313 290 286 53 354 334 318 221 6 358 351 358 346 360 348 348 347 347 0 7 17 14 37 75 96 106 112 119 121 119 119 114 115 117 114 111 114 114 110 103 110
305 275 260 266 279 285 54 347 320 267 359 336 353 356 350 353 336 318 334 336 351 356 14 13 27 28 41 97 111 104 106 107 110 107 107 107 105 108 111 107 107 113 113 120
292 306 287 281 274 284 39 328 337 331 323 322 342 355 345 352 355 341 8 329 348 358 3 18 17 34 33 55 90 97 98 106 109 112 105 104 110 111 113 116 113 118 121 111
265 239 315 299 300 318 312 307 304 306 312 317 339 351 348 342 8 346 349 4 1 11 5 7 17 50 65 81 75 100 101 110 111 106 103 104 107 113 118 118 129 120 114 118
275 258 255 301 258 305 310 300 290 288 291 329 336 338 342 350 10 346 4 5 2 15 15 16 33 57 80 101 101 96 105 104 100 101 103 109 106 108 107 109 112 112 112 116
282 294 278 283 284 284 256 349 340 317 317 319 330 343 342 341 17 359 11 10 6 14 46 48 45 46 83 106 105 108 115 111 97 86 96 101 106 109 112 98 104 107 95 93
258 260 252 264 348 292 295 312 318 310 306 330 336 332 344 348 12 10 52 33 25 23 66 78 69 62 68 101 110 107 112 121 110 108 102 103 109 105 112 107 92 56 68 67